| time (UTC) | temp F | wind direction | speed MPH | gust MPH | rain 1hr in | rain 24hr in | rain mn in | humidity % | barometer mb |
| 20260905044512 | 66 | 39 | 0.0 | 0.0 | 0.00 | 0.00 | 0.00 | 90 | 1012.9 |
| 20260905043011 | 66 | 42 | 0.0 | 0.0 | 0.00 | 0.00 | 0.00 | 89 | 1012.9 |
| 20260905041511 | 66 | 43 | 0.0 | 0.0 | 0.00 | 0.00 | 0.00 | 89 | 1013.0 |
| 20260905040016 | 66 | 43 | 0.0 | 0.0 | 0.00 | 0.00 | 0.00 | 88 | 1012.8 |
| 20260905034509 | 66 | 43 | 0.0 | 0.0 | 0.00 | 0.00 | 0.00 | 89 | 1012.8 |
| 20260905033022 | 66 | 43 | 0.0 | 0.0 | 0.00 | 0.00 | 0.00 | 88 | 1012.9 |
| 20260905031507 | 66 | 43 | 0.0 | 0.0 | 0.00 | 0.00 | 0.00 | 86 | 1012.8 |
| 20260905030008 | 67 | 43 | 0.0 | 0.0 | 0.00 | 0.00 | 0.00 | 84 | 1012.7 |
| 20260905024506 | 68 | 42 | 0.0 | 0.0 | 0.00 | 0.00 | 0.00 | 82 | 1012.6 |
| 20260905023018 | 67 | 37 | 0.0 | 0.0 | 0.00 | 0.00 | 0.00 | 83 | 1012.8 |
| 20260905021506 | 67 | 60 | 0.0 | 0.0 | 0.00 | 0.00 | 0.00 | 83 | 1012.8 |
| 20260905020008 | 68 | 239 | 0.0 | 0.0 | 0.00 | 0.00 | 0.00 | 82 | 1012.9 |
| 20260905014502 | 68 | 174 | 0.0 | 0.0 | 0.00 | 0.19 | 0.00 | 82 | 1012.9 |
| 20260905013003 | 69 | 174 | 0.0 | 0.0 | 0.00 | 0.19 | 0.00 | 79 | 1012.9 |
| 20260905011502 | 69 | 65 | 0.0 | 0.0 | 0.00 | 0.19 | 0.00 | 78 | 1012.8 |
| 20260905010001 | 70 | 290 | 0.0 | 0.0 | 0.00 | 0.61 | 0.00 | 77 | 1012.9 |
| 20260905004601 | 71 | 319 | 0.0 | 0.0 | 0.00 | 0.61 | 0.00 | 75 | 1012.8 |
| 20260905003100 | 71 | 318 | 0.0 | 0.0 | 0.00 | 0.61 | 0.00 | 73 | 1012.8 |
| 20260905001608 | 71 | 337 | 0.0 | 0.0 | 0.00 | 0.61 | 0.00 | 74 | 1012.8 |
| 20260905000116 | 71 | 344 | 0.0 | 0.0 | 0.00 | 0.61 | 0.00 | 72 | 1012.6 |
| 20260904234558 | 72 | 352 | 0.0 | 0.0 | 0.00 | 0.61 | 0.00 | 72 | 1012.4 |
| 20260904233058 | 72 | 285 | 0.0 | 0.0 | 0.00 | 0.61 | 0.00 | 70 | 1012.3 |
| 20260904231601 | 73 | 283 | 0.0 | 0.0 | 0.00 | 0.61 | 0.00 | 71 | 1012.4 |
| 20260904230056 | 73 | 25 | 0.0 | 0.0 | 0.00 | 0.61 | 0.00 | 69 | 1012.2 |
| 20260904224602 | 74 | 300 | 0.0 | 0.0 | 0.00 | 0.61 | 0.00 | 65 | 1011.9 |
| 20260904223057 | 74 | 39 | 0.0 | 0.0 | 0.00 | 0.61 | 0.00 | 64 | 1012.0 |
| 20260904221554 | 74 | 32 | 0.0 | 0.0 | 0.00 | 0.61 | 0.00 | 64 | 1011.8 |
| 20260904220111 | 75 | 323 | 0.0 | 0.0 | 0.00 | 0.61 | 0.00 | 61 | 1011.8 |
| 20260904214553 | 74 | 337 | 0.0 | 0.0 | 0.00 | 0.61 | 0.00 | 61 | 1011.9 |
| 20260904213051 | 74 | 4 | 0.0 | 0.0 | 0.00 | 0.61 | 0.00 | 67 | 1012.0 |
| 20260904211557 | 75 | 8 | 0.0 | 0.0 | 0.00 | 0.61 | 0.00 | 70 | 1012.1 |
| 20260904210101 | 75 | 5 | 0.0 | 0.0 | 0.00 | 0.61 | 0.00 | 68 | 1012.1 |
| 20260904204551 | 75 | 356 | 0.0 | 0.0 | 0.00 | 0.64 | 0.00 | 65 | 1012.2 |
| 20260904203049 | 75 | 37 | 0.0 | 0.0 | 0.00 | 0.64 | 0.00 | 68 | 1012.2 |
| 20260904201548 | 76 | 44 | 0.0 | 0.0 | 0.00 | 0.64 | 0.00 | 68 | 1012.3 |
| 20260904200048 | 76 | 303 | 0.0 | 0.0 | 0.00 | 0.64 | 0.00 | 67 | 1012.5 |
| 20260904194554 | 76 | 274 | 0.0 | 0.0 | 0.00 | 0.64 | 0.00 | 69 | 1012.7 |
| 20260904193047 | 78 | 9 | 0.0 | 0.0 | 0.00 | 0.64 | 0.00 | 64 | 1012.8 |
| 20260904191549 | 79 | 96 | 0.0 | 0.0 | 0.00 | 0.64 | 0.00 | 63 | 1012.8 |
| 20260904190044 | 78 | 329 | 0.0 | 1.0 | 0.00 | 0.64 | 0.00 | 62 | 1013.0 |
| 20260904184547 | 78 | 219 | 0.0 | 0.0 | 0.00 | 0.64 | 0.00 | 60 | 1013.1 |
| 20260904183042 | 78 | 328 | 0.0 | 0.0 | 0.00 | 0.64 | 0.00 | 58 | 1013.2 |
| 20260904181544 | 76 | 137 | 0.0 | 1.0 | 0.00 | 0.64 | 0.00 | 61 | 1013.2 |
| 20260904180038 | 76 | 309 | 0.0 | 0.0 | 0.00 | 0.64 | 0.00 | 64 | 1013.5 |
| 20260904174559 | 76 | 12 | 0.0 | 0.0 | 0.00 | 0.64 | 0.00 | 62 | 1013.4 |
| 20260904173036 | 76 | 39 | 0.0 | 1.0 | 0.00 | 0.64 | 0.00 | 67 | 1013.7 |
| 20260904171532 | 75 | 333 | 0.0 | 0.0 | 0.00 | 0.64 | 0.00 | 69 | 1013.8 |
| 20260904170031 | 74 | 49 | 0.0 | 0.0 | 0.00 | 0.64 | 0.00 | 69 | 1014.1 |
| 20260904164530 | 74 | 11 | 0.0 | 0.0 | 0.00 | 0.64 | 0.00 | 71 | 1014.0 |
| 20260904163028 | 74 | 346 | 0.0 | 0.0 | 0.00 | 0.64 | 0.00 | 72 | 1014.0 |
| 20260904161527 | 73 | 330 | 0.0 | 0.0 | 0.00 | 0.64 | 0.00 | 75 | 1014.0 |
| 20260904160026 | 73 | 77 | 0.0 | 0.0 | 0.00 | 0.64 | 0.00 | 74 | 1014.0 |
| 20260904154525 | 73 | 333 | 0.0 | 0.0 | 0.00 | 0.64 | 0.00 | 76 | 1014.0 |
| 20260904153032 | 73 | 309 | 0.0 | 0.0 | 0.00 | 0.64 | 0.00 | 80 | 1014.0 |
| 20260904151518 | 72 | 6 | 0.0 | 0.0 | 0.00 | 0.64 | 0.00 | 79 | 1013.9 |
| 20260904150017 | 71 | 281 | 0.0 | 0.0 | 0.00 | 0.64 | 0.00 | 84 | 1013.6 |
| 20260904144513 | 70 | 186 | 0.0 | 0.0 | 0.00 | 0.64 | 0.00 | 84 | 1013.7 |
| 20260904143010 | 69 | 158 | 0.0 | 0.0 | 0.00 | 0.64 | 0.00 | 88 | 1013.7 |
| 20260904141507 | 68 | 192 | 0.0 | 0.0 | 0.00 | 0.64 | 0.00 | 92 | 1013.9 |
| 20260904140005 | 67 | 250 | 0.0 | 0.0 | 0.00 | 0.64 | 0.00 | 97 | 1013.9 |
| 20260904134505 | 67 | 162 | 0.0 | 0.0 | 0.00 | 0.64 | 0.00 | 98 | 1014.2 |
| 20260904133005 | 66 | 345 | 0.0 | 0.0 | 0.00 | 0.64 | 0.00 | 99 | 1014.1 |
| 20260904131503 | 66 | 342 | 0.0 | 0.0 | 0.00 | 0.64 | 0.00 | 99 | 1014.1 |
| 20260904130002 | 65 | 36 | 0.0 | 0.0 | 0.00 | 0.64 | 0.00 | 99 | 1014.1 |
| 20260904124503 | 65 | 27 | 0.0 | 0.0 | 0.00 | 0.64 | 0.00 | 99 | 1014.2 |
| 20260904123114 | 64 | 15 | 0.0 | 0.0 | 0.00 | 0.64 | 0.00 | 99 | 1013.9 |
| 20260904121603 | 64 | 160 | 0.0 | 0.0 | 0.00 | 0.64 | 0.00 | 99 | 1013.9 |
| 20260904120104 | 63 | 160 | 0.0 | 0.0 | 0.00 | 0.64 | 0.00 | 99 | 1014.0 |
| 20260904114558 | 63 | 160 | 0.0 | 0.0 | 0.00 | 0.64 | 0.00 | 99 | 1014.0 |
| 20260904113101 | 62 | 160 | 0.0 | 0.0 | 0.00 | 0.64 | 0.00 | 99 | 1014.0 |
| 20260904111556 | 62 | 160 | 0.0 | 0.0 | 0.00 | 0.64 | 0.00 | 99 | 1013.9 |
| 20260904110058 | 62 | 160 | 0.0 | 0.0 | 0.00 | 0.64 | 0.00 | 99 | 1013.8 |
| 20260904104600 | 62 | 160 | 0.0 | 0.0 | 0.00 | 0.64 | 0.00 | 99 | 1013.5 |
| 20260904103053 | 62 | 160 | 0.0 | 0.0 | 0.00 | 0.64 | 0.00 | 99 | 1013.6 |
| 20260904101603 | 63 | 160 | 0.0 | 0.0 | 0.00 | 0.64 | 0.00 | 99 | 1013.3 |
| 20260904100049 | 63 | 160 | 0.0 | 0.0 | 0.00 | 0.64 | 0.00 | 99 | 1013.2 |
| 20260904094549 | 63 | 160 | 0.0 | 0.0 | 0.00 | 0.64 | 0.00 | 99 | 1013.1 |
| 20260904093108 | 64 | 160 | 0.0 | 0.0 | 0.00 | 0.64 | 0.00 | 99 | 1013.2 |
| 20260904091545 | 64 | 160 | 0.0 | 0.0 | 0.00 | 0.64 | 0.00 | 99 | 1013.0 |
| 20260904090047 | 64 | 182 | 0.0 | 0.0 | 0.00 | 0.64 | 0.00 | 99 | 1013.0 |
| 20260904084541 | 64 | 182 | 0.0 | 0.0 | 0.00 | 0.64 | 0.00 | 99 | 1012.8 |
| 20260904083040 | 64 | 182 | 0.0 | 0.0 | 0.00 | 0.64 | 0.00 | 99 | 1012.7 |
| 20260904081541 | 64 | 184 | 0.0 | 0.0 | 0.00 | 0.64 | 0.00 | 99 | 1012.5 |
| 20260904080041 | 64 | 184 | 0.0 | 0.0 | 0.00 | 0.64 | 0.00 | 99 | 1012.3 |
| 20260904074540 | 64 | 184 | 0.0 | 0.0 | 0.00 | 0.64 | 0.00 | 99 | 1012.3 |
| 20260904073039 | 64 | 184 | 0.0 | 0.0 | 0.00 | 0.64 | 0.00 | 99 | 1012.3 |
| 20260904071536 | 64 | 184 | 0.0 | 0.0 | 0.00 | 0.64 | 0.00 | 98 | 1012.2 |
| 20260904070045 | 65 | 184 | 0.0 | 0.0 | 0.00 | 0.64 | 0.00 | 98 | 1012.2 |
| 20260904064543 | 65 | 184 | 0.0 | 0.0 | 0.00 | 0.64 | 0.00 | 98 | 1012.1 |
| 20260904063036 | 65 | 184 | 0.0 | 0.0 | 0.00 | 0.64 | 0.00 | 98 | 1012.1 |
| 20260904061538 | 66 | 184 | 0.0 | 0.0 | 0.00 | 0.64 | 0.00 | 98 | 1012.3 |
| 20260904060026 | 67 | 184 | 0.0 | 0.0 | 0.00 | 0.64 | 0.00 | 98 | 1012.3 |
| 20260904054531 | 68 | 168 | 0.0 | 0.0 | 0.00 | 0.64 | 0.00 | 99 | 1012.4 |
| 20260904053022 | 68 | 168 | 0.0 | 0.0 | 0.00 | 0.64 | 0.00 | 98 | 1012.5 |
| 20260904051520 | 68 | 168 | 0.0 | 0.0 | 0.00 | 0.64 | 0.00 | 98 | 1012.6 |
| 20260904050021 | 68 | 168 | 0.0 | 0.0 | 0.00 | 0.64 | 0.00 | 98 | 1012.6 |